Temperature
22 21 20 19 19 19 20 20 20 19 16 15 15 15 16 13 11 11 11 11 10 10 9 8 7 5 4 3 3 2 2 2 2 2 2 1 1 0 -1 -2 -3 -4 -5 -6
21 20 19 19 19 19 19 19 20 18 15 15 15 15 16 15 12 11 12 12 11 11 10 9 7 6 4 3 2 2 2 2 2 2 1 1 0 -0 -1 -3 -4 -5 -6 -6
21 18 18 19 19 19 20 19 18 17 18 16 14 16 17 16 14 12 12 12 12 12 11 9 8 6 4 3 2 2 2 2 2 2 1 1 -0 -1 -2 -3 -4 -5 -6 -7
20 18 18 18 19 19 19 17 17 17 15 17 16 16 15 15 13 13 13 12 12 12 11 10 9 7 5 3 2 2 2 2 2 1 1 0 -1 -1 -2 -3 -4 -5 -6 -7
19 18 18 18 18 17 17 16 16 16 16 16 17 16 17 16 14 13 13 13 13 12 12 11 9 7 5 3 3 2 2 2 2 1 1 -0 -1 -2 -3 -4 -5 -6 -6 -7
18 17 18 18 17 16 16 16 15 15 15 16 18 17 18 16 18 17 16 15 14 13 12 11 9 7 5 3 3 2 2 2 1 1 0 -0 -1 -2 -3 -4 -5 -6 -6 -7
17 17 17 16 16 16 15 16 16 16 15 17 18 17 17 19 18 18 17 16 15 13 12 10 9 7 5 4 3 2 2 1 1 1 0 -1 -1 -2 -3 -4 -5 -6 -7 -7
19 18 16 16 17 16 18 17 16 17 17 18 16 16 18 18 18 18 17 16 14 13 11 10 8 7 5 4 3 2 2 1 1 0 -0 -1 -2 -3 -3 -4 -5 -6 -7 -8
19 18 15 16 16 15 17 17 16 16 18 16 17 19 19 16 15 15 14 13 13 12 11 9 8 6 4 3 2 2 2 1 1 0 -0 -1 -2 -3 -3 -4 -5 -6 -7 -8
17 18 16 14 14 14 14 15 15 15 16 15 17 19 18 15 15 14 13 14 14 12 11 9 7 5 4 2 2 1 1 1 1 0 -0 -1 -2 -3 -3 -4 -5 -6 -7 -8
16 16 16 14 14 15 14 15 15 15 16 14 15 17 20 18 19 18 16 16 15 14 12 10 7 5 3 2 1 1 1 1 1 0 -0 -1 -2 -3 -3 -4 -5 -6 -7 -7
16 15 16 16 15 14 16 16 16 15 15 15 14 15 20 19 19 19 18 17 16 14 12 10 7 5 3 2 1 1 2 1 1 0 -0 -1 -2 -3 -3 -4 -5 -6 -7 -7
15 14 15 16 14 13 14 15 16 16 15 14 14 15 19 19 18 18 17 16 15 13 11 9 6 4 3 2 1 1 1 1 1 0 -1 -1 -2 -3 -3 -4 -5 -6 -6 -7
13 13 14 16 16 15 14 14 14 14 13 13 14 16 18 17 17 17 17 16 15 13 11 9 7 5 3 2 1 1 1 1 1 0 -1 -1 -2 -3 -3 -4 -5 -5 -6 -7
11 12 14 15 16 16 15 15 14 13 14 14 15 16 17 18 18 18 18 17 15 13 11 9 7 5 3 2 1 1 1 1 1 0 -1 -1 -2 -3 -3 -4 -4 -5 -6 -7
11 11 13 13 15 15 13 14 14 14 14 14 15 15 16 18 18 18 17 16 15 14 12 10 8 5 4 2 1 1 1 1 1 0 -1 -1 -2 -2 -3 -4 -4 -5 -5 -6
10 11 12 12 15 13 12 14 13 13 13 13 13 14 16 16 16 17 17 16 15 14 13 11 9 7 5 3 2 2 2 1 1 0 -1 -1 -2 -2 -3 -3 -4 -4 -5 -6
11 11 11 11 13 11 15 16 15 14 14 13 13 13 14 15 16 16 17 16 16 15 14 12 11 8 6 4 2 2 2 1 1 0 -1 -1 -2 -2 -3 -3 -4 -4 -5 -6
10 11 11 10 10 12 15 15 14 13 12 13 13 13 14 16 14 15 18 17 16 15 14 13 11 9 6 4 3 2 2 1 1 0 -0 -1 -2 -2 -3 -3 -3 -4 -4 -5
8 9 9 9 9 10 15 14 14 13 12 15 14 13 14 13 11 13 17 17 16 15 14 12 11 9 6 5 3 2 2 2 1 1 -0 -1 -2 -2 -2 -3 -3 -4 -4 -5
6 7 7 8 8 11 14 12 12 13 15 18 18 17 16 12 14 17 17 16 15 14 13 11 10 9 7 6 4 3 2 2 2 1 -0 -1 -2 -2 -2 -3 -3 -4 -4 -5
8 7 7 8 8 10 12 10 12 14 17 18 19 18 18 17 17 17 16 15 15 14 12 11 9 8 7 5 4 3 3 3 1 0 -0 -1 -2 -2 -2 -3 -3 -4 -4 -4
11 11 11 11 13 15 14 14 16 16 16 17 17 17 16 16 16 16 16 16 15 14 12 10 9 7 6 5 5 4 3 2 1 0 -0 -1 -2 -2 -2 -3 -3 -4 -4 -5
12 13 12 11 12 14 15 15 16 16 16 17 17 17 16 16 16 16 16 15 14 13 12 10 8 7 6 5 5 4 3 2 1 0 -0 -1 -2 -2 -3 -3 -3 -4 -4 -5
14 11 10 10 12 14 16 16 17 17 17 17 17 17 16 16 15 15 15 15 14 13 12 10 8 8 7 5 4 4 2 2 1 0 -1 -1 -2 -2 -3 -3 -3 -4 -4 -5
12 12 11 13 14 13 15 16 16 16 16 16 16 16 15 15 15 14 14 14 13 12 11 10 9 7 6 4 4 3 2 2 1 0 -0 -1 -2 -2 -3 -3 -3 -4 -4 -5
Wind_Speed
4 4 2 5 5 6 6 6 7 3 8 7 10 12 10 15 13 12 12 13 14 14 13 13 13 12 11 10 8 7 5 3 1 0 2 3 3 4 6 7 8 9 11 13
5 2 5 3 1 4 6 8 6 5 7 5 8 11 10 14 17 14 13 13 14 13 13 13 13 13 12 11 10 7 6 3 2 1 1 3 4 4 7 8 7 9 11 13
3 4 3 2 5 6 8 3 4 5 3 8 5 7 6 5 10 12 12 12 12 14 14 14 14 13 12 11 10 8 6 4 3 2 2 3 3 4 4 3 4 9 13 14
3 3 2 5 5 2 4 6 3 5 6 3 6 4 7 7 8 11 13 13 13 12 12 13 15 15 13 11 10 8 7 5 4 3 3 3 4 4 5 4 4 10 13 13
3 5 4 6 1 1 3 2 4 6 6 5 6 5 4 7 9 13 15 15 14 12 12 12 14 15 12 11 10 8 7 7 5 4 4 4 5 4 4 5 6 6 9 12
3 1 2 3 2 1 4 4 6 4 3 5 6 4 4 7 7 8 11 13 13 12 11 10 11 13 10 11 10 8 8 7 7 6 5 5 5 6 6 7 6 5 5 8
7 5 4 1 4 6 5 4 3 4 4 4 4 3 7 8 8 7 9 10 10 11 11 10 12 13 12 12 11 9 9 8 8 7 6 5 5 6 7 6 6 6 5 5
6 6 8 6 2 3 3 3 3 3 3 2 3 6 6 8 8 6 5 6 8 9 10 11 12 13 12 12 12 11 10 9 8 6 6 5 5 4 4 5 6 6 6 6
6 2 3 3 2 3 4 3 2 3 5 4 6 7 4 5 6 7 8 8 10 10 10 11 12 12 12 13 12 11 10 8 8 7 6 6 5 5 6 6 5 5 5 9
5 4 6 4 2 4 4 5 2 3 3 5 7 7 6 9 10 12 12 12 12 11 11 11 12 13 12 12 11 10 9 9 7 7 6 5 5 6 5 5 7 7 7 9
3 4 4 5 8 8 6 4 5 4 3 3 5 7 4 10 9 8 10 11 12 13 13 12 12 12 11 11 11 10 9 9 8 7 6 5 5 5 5 6 7 6 6 8
1 3 5 4 2 3 3 6 7 5 5 5 4 9 6 8 7 7 7 7 8 11 12 11 12 12 11 11 11 11 10 9 8 7 6 6 6 6 6 7 7 6 6 8
1 2 5 2 1 1 4 6 7 5 3 5 5 9 3 4 5 8 9 9 8 10 11 11 12 12 13 12 11 11 10 10 9 8 7 6 6 6 6 6 6 6 7 7
1 4 7 6 3 2 6 8 9 8 6 7 11 15 9 8 9 7 8 10 10 11 12 12 13 13 13 12 12 11 11 10 9 8 7 7 7 5 5 6 7 7 7 8
3 5 7 11 11 8 10 11 12 16 14 12 12 14 15 9 7 5 2 6 9 10 12 14 14 13 13 13 12 12 11 10 9 8 8 7 5 4 5 6 8 8 8 10
4 5 5 7 10 8 10 14 16 18 18 20 19 21 17 11 8 6 6 7 10 11 13 14 15 15 15 15 14 12 11 10 10 9 8 7 5 6 6 7 8 9 9 9
6 5 4 6 2 5 10 15 17 11 12 11 18 16 10 9 9 8 8 9 10 12 13 15 17 17 16 16 14 14 12 10 10 9 8 7 6 6 7 8 8 8 9 9
7 4 3 4 4 11 11 4 7 12 13 14 14 13 11 10 7 7 9 11 12 11 12 14 15 15 13 13 13 12 11 11 11 9 9 8 7 7 7 7 8 9 9 8
2 5 4 3 5 10 12 8 6 8 9 13 19 19 17 9 7 9 12 13 13 12 11 12 13 13 13 14 14 13 13 12 11 11 10 9 8 8 7 8 9 9 8 8
3 3 4 5 6 9 10 2 3 3 8 11 14 16 14 4 3 8 6 7 9 8 8 9 11 13 14 14 15 15 14 14 14 13 11 9 9 8 8 9 8 7 7 7
5 5 7 8 9 12 10 6 7 5 9 6 11 12 10 10 12 8 5 7 8 8 8 10 12 14 15 15 16 16 16 16 14 12 10 10 9 9 8 8 6 7 7 7
13 11 11 9 9 14 8 10 11 12 4 4 6 9 10 11 12 11 10 10 10 10 9 11 12 12 13 16 18 18 17 14 12 12 11 10 9 8 7 6 6 6 6 6
13 14 10 14 15 7 11 13 9 5 6 7 6 8 9 11 12 13 12 11 11 11 11 11 12 12 13 16 19 19 16 14 14 13 11 9 9 8 7 7 6 5 4 4
8 7 7 9 12 11 9 11 12 13 14 14 13 13 11 13 15 15 13 11 10 11 12 12 13 15 16 17 18 16 14 15 15 14 12 10 9 8 7 6 5 5 4 4
9 6 6 10 9 9 12 13 17 17 16 15 15 14 14 14 16 15 14 13 11 11 11 12 16 18 18 17 17 14 15 16 15 14 12 10 9 8 7 6 6 6 5 5
13 11 11 16 10 9 11 9 10 12 14 15 15 15 13 12 15 15 14 12 10 10 11 13 17 17 16 17 17 16 16 18 17 14 13 10 8 7 6 5 5 8 8 10
Wind_Direction
220 241 81 44 25 340 333 315 297 96 150 204 244 255 233 180 194 209 210 208 213 211 200 190 177 166 160 161 174 181 175 162 129 69 328 311 311 301 299 300 307 318 317 315
241 158 73 52 3 292 279 286 307 104 157 212 272 271 253 183 196 205 213 215 213 209 199 188 175 170 171 175 177 173 170 154 161 153 257 253 266 270 281 284 309 314 309 306
333 84 97 253 243 276 267 280 352 340 266 213 264 278 193 169 187 200 217 227 222 209 202 189 178 177 176 179 172 168 158 174 197 186 254 279 286 289 299 322 316 305 302 302
96 122 215 256 253 301 322 55 357 300 295 244 194 281 197 182 201 214 218 222 228 221 203 190 180 180 180 172 147 150 168 189 199 202 235 273 286 289 293 294 284 295 303 305
165 159 221 255 15 4 355 52 285 278 268 277 202 245 203 168 216 222 218 219 220 216 205 190 178 177 170 151 147 160 175 195 199 200 230 252 267 276 286 290 290 296 303 304
88 70 291 346 65 240 312 269 237 259 263 255 177 215 243 196 202 191 195 202 204 200 195 182 163 158 151 143 149 163 183 201 198 203 226 242 263 281 293 297 299 298 293 296
190 192 167 222 246 200 225 269 244 226 222 219 135 218 249 176 160 174 185 187 185 182 178 169 159 160 156 155 161 174 191 204 201 203 222 239 254 267 274 286 291 294 293 292
224 195 166 188 270 321 256 279 309 287 292 322 192 230 246 153 151 154 163 170 172 179 176 174 169 166 165 167 171 181 194 201 197 201 219 234 247 254 260 272 279 283 283 281
317 100 87 73 23 302 275 225 32 306 285 272 252 231 192 136 172 191 203 207 209 200 185 177 171 169 172 174 177 184 190 193 195 200 215 233 242 258 263 270 272 271 272 288
310 297 160 140 217 230 267 317 248 237 267 275 277 255 222 194 218 213 213 215 214 200 187 181 178 177 177 174 176 179 183 192 193 196 214 227 231 247 256 268 271 271 277 288
292 286 174 175 209 200 186 219 229 257 274 245 277 267 219 169 174 190 207 211 203 193 189 185 182 177 171 166 169 176 186 191 192 198 209 227 242 252 258 264 267 272 281 288
219 301 266 198 111 19 215 219 198 212 234 213 255 272 246 172 162 185 216 207 188 184 181 179 175 171 171 172 174 183 189 189 192 193 199 224 243 252 258 265 275 283 284 288
126 250 279 231 318 318 272 247 238 256 299 244 233 259 232 170 190 211 218 215 191 175 172 173 176 179 180 180 183 188 189 188 184 182 196 223 241 250 261 275 284 287 285 285
45 244 238 264 338 215 230 226 212 210 217 234 231 250 254 238 242 239 219 208 194 182 179 182 187 187 185 185 187 189 188 181 178 181 197 221 238 252 271 286 288 285 283 286
200 247 258 270 279 251 241 239 211 215 222 231 246 250 258 259 283 297 248 190 191 187 189 193 193 190 187 187 188 187 184 177 176 182 199 217 231 261 278 281 281 281 280 287
212 246 273 275 258 254 263 252 237 231 234 243 259 270 270 282 278 267 260 228 216 210 203 200 196 193 192 191 189 184 182 175 171 183 197 205 220 244 258 268 274 277 278 279
192 216 249 268 230 333 269 244 226 220 218 211 238 249 273 270 255 250 254 248 234 224 209 201 200 199 195 191 185 184 180 168 172 184 193 200 213 237 253 269 277 279 282 280
191 202 235 273 305 253 247 255 234 222 235 221 239 261 273 269 286 280 261 251 248 233 213 203 198 196 189 180 176 173 169 170 176 185 194 199 209 230 247 261 271 276 276 276
284 204 223 233 252 270 278 251 205 214 264 228 232 250 259 270 321 286 256 235 233 228 210 200 191 184 178 176 172 168 172 174 180 191 196 198 204 220 238 252 261 268 273 280
293 288 227 209 226 248 255 178 115 132 276 243 211 231 245 190 279 271 248 217 224 219 196 181 173 172 177 176 168 173 180 182 192 196 194 193 198 212 230 244 256 266 276 281
174 204 213 220 232 256 259 148 128 184 249 220 196 216 218 198 224 242 216 222 221 214 195 174 171 181 183 173 171 182 187 195 194 185 183 189 197 211 227 242 256 271 278 287
180 183 199 194 215 250 207 154 192 223 276 243 220 221 224 231 249 256 245 238 224 213 196 181 182 187 180 175 179 189 195 191 176 175 180 188 198 212 225 235 253 262 275 292
197 196 197 201 220 247 176 204 230 281 283 272 262 258 249 256 262 263 259 247 230 214 203 191 188 188 185 185 187 195 192 174 170 173 182 189 198 207 213 225 241 256 269 278
225 217 228 240 249 255 236 237 254 257 256 261 262 264 260 258 264 268 266 257 237 217 204 194 190 197 198 194 194 195 179 170 170 178 184 189 195 203 210 220 225 229 243 261
253 204 235 254 264 283 267 245 248 256 260 264 265 260 255 257 264 264 266 260 241 222 203 195 202 207 205 196 195 188 175 170 174 180 185 188 192 194 206 217 219 221 218 227
243 237 242 259 257 254 264 262 257 260 266 268 271 277 270 252 260 266 266 261 244 223 203 203 209 211 205 195 194 188 177 175 176 182 187 188 188 192 198 207 233 250 240 250
Height
1553 1554 1556 1558 1557 1557 1555 1556 1556 1555 1561 1564 1563 1559 1556 1558 1561 1562 1563 1564 1565 1566 1568 1569 1569 1568 1568 1568 1568 1569 1568 1567 1565 1563 1561 1558 1556 1553 1550 1547 1543 1539 1535 1531
1554 1556 1557 1556 1557 1557 1556 1557 1554 1557 1560 1561 1559 1555 1548 1550 1552 1555 1557 1558 1559 1561 1563 1564 1563 1562 1562 1563 1564 1564 1563 1562 1561 1559 1557 1554 1552 1549 1546 1543 1540 1536 1532 1528
1552 1559 1557 1557 1556 1557 1554 1555 1557 1559 1556 1555 1560 1552 1545 1545 1548 1551 1552 1553 1554 1555 1556 1557 1557 1556 1557 1558 1558 1559 1559 1559 1557 1555 1553 1550 1548 1546 1543 1540 1536 1532 1528 1524
1554 1558 1558 1558 1556 1557 1557 1557 1558 1559 1563 1556 1557 1561 1549 1545 1547 1547 1546 1547 1547 1548 1550 1551 1550 1550 1551 1553 1553 1554 1555 1554 1553 1551 1549 1547 1544 1542 1539 1536 1532 1528 1525 1521
1554 1557 1558 1558 1556 1558 1557 1558 1560 1559 1560 1559 1552 1558 1543 1541 1544 1540 1538 1539 1539 1542 1544 1545 1545 1545 1546 1547 1547 1549 1550 1550 1549 1547 1545 1543 1541 1538 1535 1531 1528 1524 1521 1517
1556 1556 1556 1556 1557 1557 1557 1558 1559 1560 1561 1562 1545 1550 1542 1538 1530 1528 1530 1532 1533 1535 1538 1540 1541 1541 1541 1541 1542 1544 1545 1545 1544 1543 1541 1539 1537 1534 1531 1527 1524 1520 1516 1512
1557 1555 1555 1557 1557 1557 1558 1562 1563 1564 1569 1552 1541 1546 1539 1522 1521 1523 1525 1527 1529 1531 1532 1534 1535 1534 1534 1535 1537 1539 1540 1540 1540 1539 1537 1536 1533 1530 1527 1523 1520 1516 1512 1508
1551 1554 1553 1554 1555 1555 1552 1556 1565 1566 1559 1548 1545 1546 1527 1515 1517 1519 1521 1523 1525 1526 1527 1528 1528 1528 1529 1529 1531 1534 1535 1535 1535 1534 1533 1531 1529 1526 1523 1520 1516 1512 1508 1504
1549 1553 1554 1554 1555 1556 1552 1552 1553 1559 1551 1556 1545 1527 1517 1516 1516 1517 1519 1520 1520 1521 1522 1522 1523 1523 1523 1524 1526 1528 1530 1530 1530 1529 1528 1527 1525 1522 1519 1516 1512 1508 1504 1500
1552 1553 1553 1555 1556 1556 1556 1554 1557 1560 1562 1564 1541 1527 1523 1519 1515 1514 1514 1514 1514 1515 1516 1516 1516 1517 1518 1519 1521 1523 1524 1525 1525 1525 1524 1523 1521 1518 1515 1512 1508 1504 1500 1496
1554 1556 1554 1555 1555 1552 1556 1555 1554 1552 1551 1562 1556 1535 1501 1503 1503 1505 1506 1507 1507 1508 1509 1509 1510 1511 1513 1514 1515 1517 1519 1520 1520 1519 1519 1518 1516 1514 1511 1507 1504 1500 1496 1492
1553 1555 1553 1547 1544 1545 1543 1544 1547 1556 1551 1550 1553 1535 1497 1496 1497 1500 1502 1503 1503 1503 1503 1504 1505 1506 1507 1507 1509 1511 1513 1514 1514 1514 1514 1513 1511 1509 1506 1503 1500 1496 1492 1488
1553 1557 1557 1550 1551 1550 1547 1542 1540 1542 1546 1549 1549 1529 1496 1495 1496 1496 1497 1498 1498 1498 1498 1499 1499 1499 1500 1501 1503 1505 1507 1508 1509 1509 1509 1508 1507 1504 1502 1499 1496 1492 1488 1484
1554 1556 1556 1550 1546 1543 1545 1541 1539 1543 1548 1544 1532 1515 1499 1496 1494 1493 1492 1492 1492 1492 1492 1492 1492 1492 1493 1494 1496 1499 1500 1502 1503 1503 1504 1503 1502 1500 1497 1495 1491 1488 1484 1480
1554 1555 1546 1540 1536 1535 1535 1533 1534 1535 1529 1528 1513 1504 1492 1489 1489 1488 1488 1488 1488 1487 1486 1485 1485 1485 1486 1488 1489 1492 1494 1495 1497 1498 1498 1498 1497 1495 1493 1490 1487 1484 1480 1476
1552 1553 1546 1541 1532 1531 1532 1526 1524 1523 1519 1513 1507 1498 1484 1486 1485 1484 1484 1484 1483 1481 1480 1478 1478 1478 1478 1479 1482 1484 1487 1489 1491 1492 1492 1492 1492 1490 1488 1486 1483 1479 1476 1472
1549 1551 1549 1546 1531 1534 1532 1512 1511 1510 1502 1503 1504 1491 1483 1483 1481 1480 1480 1479 1477 1475 1473 1471 1470 1469 1470 1472 1474 1477 1480 1483 1484 1486 1487 1487 1486 1485 1484 1481 1479 1475 1472 1468
1543 1545 1546 1545 1537 1543 1509 1496 1494 1496 1492 1491 1487 1482 1480 1479 1478 1476 1475 1473 1470 1468 1466 1464 1463 1462 1463 1465 1468 1471 1474 1476 1478 1480 1481 1481 1481 1480 1479 1477 1475 1472 1468 1464
1539 1540 1543 1546 1543 1526 1503 1491 1491 1493 1489 1480 1480 1477 1475 1474 1474 1470 1468 1466 1464 1462 1460 1458 1456 1456 1457 1458 1461 1464 1466 1469 1471 1473 1474 1476 1476 1475 1474 1473 1470 1467 1464 1460
1540 1539 1543 1542 1544 1532 1498 1489 1487 1491 1491 1469 1469 1470 1469 1472 1477 1467 1462 1460 1458 1456 1453 1451 1450 1449 1450 1451 1454 1456 1458 1461 1463 1466 1468 1470 1470 1470 1469 1468 1466 1464 1461 1457
1541 1541 1542 1539 1535 1513 1488 1487 1489 1496 1480 1463 1462 1463 1464 1465 1464 1459 1456 1454 1452 1449 1447 1444 1443 1441 1442 1443 1445 1448 1450 1453 1457 1460 1462 1463 1464 1465 1464 1463 1462 1460 1457 1454
1521 1529 1529 1526 1528 1509 1479 1483 1483 1472 1462 1461 1459 1459 1459 1458 1456 1454 1451 1448 1445 1442 1440 1437 1435 1434 1435 1435 1437 1439 1441 1445 1450 1453 1455 1457 1458 1459 1459 1459 1458 1456 1454 1451
1498 1497 1497 1496 1487 1472 1469 1467 1463 1462 1460 1458 1457 1456 1455 1452 1449 1447 1444 1441 1438 1435 1432 1430 1428 1427 1427 1427 1428 1430 1434 1438 1442 1445 1448 1450 1452 1453 1454 1454 1453 1452 1450 1447
1485 1482 1483 1480 1470 1466 1465 1462 1461 1459 1457 1453 1451 1450 1448 1446 1442 1440 1437 1433 1430 1427 1425 1422 1420 1419 1417 1417 1419 1423 1427 1431 1435 1438 1441 1444 1445 1447 1448 1448 1448 1447 1446 1444
1477 1479 1478 1472 1464 1463 1458 1456 1454 1452 1450 1447 1445 1444 1442 1439 1436 1433 1429 1425 1422 1419 1416 1414 1411 1409 1408 1409 1411 1415 1419 1423 1427 1431 1434 1437 1439 1441 1442 1443 1443 1443 1442 1440
1470 1473 1472 1462 1459 1459 1452 1451 1451 1448 1445 1442 1439 1435 1434 1433 1429 1425 1421 1417 1414 1411 1408 1405 1402 1400 1400 1401 1403 1406 1410 1414 1418 1422 1426 1429 1432 1434 1436 1438 1439 1438 1438 1437